Northeast Philadelphia, PA

3:37 PM EDT on April 27, 2017 (GMT -0400)
Northeast Philadelphia

Weather History for KPNE - November, 2011

Change the Weather History Date:

Tuesday, November 22, 2011

  Actual Average Record
Temperature  
Mean Temperature 48 °F -  
Max Temperature 51 °F 51 °F 71 °F (2007)
Min Temperature 44 °F 34 °F 21 °F (2014)
Degree Days  
Heating Degree Days 18    
Moisture  
Dew Point 47 °F    
Average Humidity 94    
Maximum Humidity 100    
Minimum Humidity 88    
Precipitation  
Precipitation 1.75 in - - ()
Sea Level Pressure  
Sea Level Pressure 30.21 in    
Wind  
Wind Speed 8 mph (ENE)    
Max Wind Speed 16 mph    
Max Gust Speed 23 mph    
Visibility 4 miles    
Events Rain    
Averages and records for this station are not official NWS values.
T = Trace of Precipitation, MM = Missing Value Source: NWS Daily Summary

Daily Weather History Graph

Daily Weather History Graph

Search for Another Location

Airport or City:

Trip Planner

Search our weather history database for the weather conditions in past years. The results will help you decide how hot, cold, wet, or windy it might be!

Date:

Astronomy

Nov. 22, 2011 Rise Set
Actual Time 6:52 AM EST 4:38 PM EST
Civil Twilight 6:23 AM EST 5:08 PM EST
Nautical Twilight 5:50 AM EST 5:41 PM EST
Astronomical Twilight 5:17 AM EST 6:13 PM EST
Moon 3:40 AM EST (11/22) 2:36 PM EST (11/22)
Length of Visible Light 10h 44m
Length of Day
9h 45m
Waning Crescent, 9% of the Moon is Illuminated
Nov 22
Waning Crescent
Nov 25
New
Dec 2
First Quarter
Dec 10
Full
Dec 17
Last Quarter

Hourly Weather History & Observations

Time (EST) Temp. Windchill Dew Point Humidity Pressure Visibility Wind Dir Wind Speed Gust Speed Precip Events Conditions
12:35 AM 48.2 °F - 46.4 °F 93% 30.29 in 8.0 mi NE 4.6 mph - 0.02 in Rain Light Rain
12:54 AM 48.2 °F - 46.4 °F 93% 30.28 in 7.0 mi ENE 4.6 mph - N/A   Overcast
1:21 AM 48.2 °F - 46.4 °F 93% 30.29 in 6.0 mi NE 5.8 mph - 0.00 in Rain Light Rain
1:46 AM 48.2 °F - 46.4 °F 93% 30.29 in 5.0 mi NE 5.8 mph - 0.02 in Rain Light Rain
1:54 AM 48.2 °F - 46.4 °F 93% 30.30 in 6.0 mi NE 5.8 mph - N/A Rain Light Rain
2:54 AM 46.9 °F - 45.0 °F 93% 30.30 in 5.0 mi NE 5.8 mph - 0.00 in   Overcast
3:54 AM 46.0 °F 41.4 °F 44.1 °F 93% 30.30 in 3.0 mi NNE 9.2 mph - 0.00 in   Overcast
4:31 AM 44.6 °F 40.7 °F 44.6 °F 100% 30.31 in 4.0 mi NNE 6.9 mph - 0.01 in Rain Light Rain
4:54 AM 45.0 °F 40.6 °F 44.1 °F 97% 30.32 in 4.0 mi NNE 8.1 mph - 0.01 in Rain Light Rain
5:54 AM 45.0 °F 40.1 °F 43.0 °F 93% 30.32 in 4.0 mi NE 9.2 mph - 0.01 in Rain Light Rain
6:54 AM 45.0 °F 40.1 °F 43.0 °F 93% 30.33 in 6.0 mi NE 9.2 mph - 0.03 in Rain Light Rain
7:54 AM 45.0 °F 41.2 °F 44.1 °F 97% 30.34 in 4.0 mi ENE 6.9 mph - 0.00 in Rain Light Rain
8:06 AM 46.4 °F 43.5 °F 44.6 °F 93% 30.34 in 2.5 mi ENE 5.8 mph - 0.00 in   Overcast
8:16 AM 46.4 °F 42.4 °F 44.6 °F 93% 30.34 in 3.0 mi ENE 8.1 mph - 0.00 in   Overcast
8:54 AM 46.0 °F 41.4 °F 44.1 °F 93% 30.35 in 4.0 mi NE 9.2 mph - 0.00 in   Overcast
9:31 AM 46.4 °F 41.9 °F 44.6 °F 93% 30.34 in 2.5 mi NE 9.2 mph - N/A   Overcast
9:54 AM 46.0 °F 41.0 °F 45.0 °F 96% 30.34 in 2.0 mi NE 10.4 mph - N/A   Overcast
10:25 AM 46.4 °F 42.4 °F 46.4 °F 100% 30.32 in 1.8 mi ENE 8.1 mph - 0.01 in Rain Light Rain
10:44 AM 46.4 °F 42.9 °F 46.4 °F 100% 30.32 in 2.5 mi ENE 6.9 mph - 0.01 in Rain Light Rain
10:54 AM 48.0 °F - 46.0 °F 93% 30.31 in 3.0 mi ENE 6.9 mph - 0.02 in   Overcast
11:19 AM 48.2 °F - 46.4 °F 93% 30.31 in 2.5 mi ENE 8.1 mph - 0.00 in Rain Light Rain
11:41 AM 48.2 °F - 46.4 °F 93% 30.29 in 4.0 mi ENE 10.4 mph - 0.00 in Rain Light Rain
11:54 AM 48.9 °F - 48.0 °F 97% 30.29 in 2.5 mi East 6.9 mph - 0.01 in Rain Light Rain
12:32 PM 50.0 °F - 48.2 °F 94% 30.27 in 3.0 mi East 11.5 mph - 0.01 in Rain Light Rain
12:54 PM 50.0 °F - 48.9 °F 96% 30.26 in 5.0 mi East 8.1 mph - 0.02 in   Overcast
1:54 PM 50.0 °F - 48.0 °F 93% 30.24 in 3.0 mi East 11.5 mph - 0.02 in Rain Light Rain
2:13 PM 50.0 °F - 48.2 °F 94% 30.23 in 2.5 mi East 12.7 mph - 0.01 in Rain Light Rain
2:34 PM 50.0 °F - 48.2 °F 94% 30.23 in 5.0 mi East 10.4 mph - 0.03 in Rain Light Rain
2:54 PM 48.9 °F - 46.9 °F 93% 30.23 in 6.0 mi East 11.5 mph - 0.04 in Rain Light Rain
3:15 PM 48.2 °F - 46.4 °F 93% 30.23 in 2.0 mi East 12.7 mph - 0.03 in Rain Heavy Rain
3:30 PM 48.2 °F - 46.4 °F 93% 30.22 in 3.0 mi East 10.4 mph - 0.08 in Rain Rain
3:51 PM 48.2 °F - 46.4 °F 93% 30.22 in 3.0 mi East 12.7 mph - 0.13 in Rain Rain
3:54 PM 48.9 °F - 46.9 °F 93% 30.22 in 3.0 mi East 12.7 mph - 0.14 in Rain Rain
4:22 PM 48.2 °F - 46.4 °F 93% 30.19 in 6.0 mi ENE 15.0 mph - 0.06 in Rain Rain
4:34 PM 48.2 °F - 46.4 °F 93% 30.18 in 7.0 mi East 12.7 mph - 0.07 in Rain Light Rain
4:54 PM 48.0 °F - 46.0 °F 93% 30.18 in 7.0 mi East 13.8 mph - 0.12 in Rain Rain
5:54 PM 48.0 °F - 46.0 °F 93% 30.17 in 4.0 mi East 13.8 mph - 0.12 in Rain Rain
6:54 PM 48.0 °F - 46.9 °F 96% 30.13 in 6.0 mi East 12.7 mph - 0.16 in Rain Rain
7:54 PM 48.9 °F - 46.9 °F 93% 30.12 in 4.0 mi East 8.1 mph - 0.22 in Rain Heavy Rain
8:54 PM 50.0 °F - 48.0 °F 93% 30.08 in 6.0 mi East 9.2 mph - 0.19 in Rain Light Rain
9:54 PM 50.0 °F - 48.0 °F 93% 30.02 in 5.0 mi ENE 12.7 mph - 0.24 in Rain Rain
10:15 PM 50.0 °F - 48.2 °F 94% 30.00 in 6.0 mi Variable 4.6 mph 23.0 mph 0.09 in Rain Light Rain
10:25 PM 50.0 °F - 48.2 °F 94% 29.98 in 4.0 mi ENE 16.1 mph 19.6 mph 0.14 in Rain Heavy Rain
10:36 PM 50.0 °F - 48.2 °F 94% 29.98 in 3.0 mi East 8.1 mph - 0.22 in Rain Heavy Rain
10:49 PM 50.0 °F - 48.2 °F 94% 29.96 in 4.0 mi ENE 13.8 mph - 0.30 in Rain Rain
10:54 PM 51.1 °F - 48.9 °F 92% 29.97 in 6.0 mi East 9.2 mph - 0.30 in Rain Light Rain
11:34 PM 51.8 °F - 48.2 °F 88% 29.93 in 6.0 mi East 10.4 mph - 0.10 in Rain Light Rain
11:44 PM 51.8 °F - 48.2 °F 88% 29.92 in 10.0 mi East 8.1 mph - 0.10 in   Overcast
11:54 PM 51.1 °F - 50.0 °F 96% 29.91 in 9.0 mi East 8.1 mph - 0.10 in   Overcast